National Weather Service Raw Text Product

Displaying AFOS PIL: RWRIA Received: 2017-08-13 09:00 UTC


569 
ASUS43 KDMX 130906
RWRIA 

WEATHER ROUNDUP FOR IOWA
NATIONAL WEATHER SERVICE DES MOINES IA
400 AM CDT SUN AUG 13 2017

NOTE: "FAIR" INDICATES FEW OR NO CLOUDS BELOW 12,000 FEET WITH NO
SIGNIFICANT WEATHER AND/OR OBSTRUCTIONS TO VISIBILITY.

* - THESE STATIONS ARE NOT NWS STATIONS...THUS NOT UNDER NWS
QUALITY CONTROL.  THEY ALSO DO NOT REPORT WEATHER SUCH 
AS PRECIPITATION OR FOG.  

IAZ001>003-012>014-020>022-031>034-043>046-131000-
   NORTHWEST IOWA
  
CITY           SKY/WX    TMP DP  RH WIND       PRES   REMARKS
CARROLL *        N/A     61  59  94 CALM      30.01F                  
CHEROKEE *     CLOUDY    63  56  79 S3        29.98F                  
DENISON *      MOCLDY    63  57  82 SE6       30.02F                  
LE MARS *      MOCLDY    66  57  72 S7        29.95F                  
ORANGE CITY *  MOCLDY    63  57  82 SE3       29.97F                  
SHELDON *      CLOUDY    63  55  77 E7        29.97F                  
SIOUX CITY     CLOUDY    66  59  78 S12       29.95F                  
SPENCER        CLOUDY    63  56  78 SE8       30.01F                  
STORM LAKE *   CLOUDY    61  57  88 SE8       30.00F                  
$$
 
IAZ055>058-069>071-079>083-090>094-131000-
   SOUTHWEST IOWA
  
CITY           SKY/WX    TMP DP  RH WIND       PRES   REMARKS
ATLANTIC *     CLOUDY    61  59  94 CALM      30.02S                  
AUDUBON *      CLOUDY    59  55  88 CALM      30.03F                  
CLARINDA *       N/A     57  57 100 CALM      30.04S                  
COUNCIL BLFS * CLOUDY    64  59  82 SE8       30.00F                  
CRESTON *      CLOUDY    61  55  82 E3        30.05F                  
HARLAN  *        N/A     61  61 100 CALM      30.04F                  
LAMONI         CLOUDY    63  55  75 SE5       30.04F                  
RED OAK *      CLOUDY    61  59  94 CALM      30.02S                  
SHENANDOAH *     N/A     61  57  88 CALM      30.02S                  
$$
 
IAZ047>049-059>061-072>074-084-131000-
   CENTRAL IOWA
  
CITY           SKY/WX    TMP DP  RH WIND       PRES   REMARKS
AMES           CLOUDY    59  56  89 CALM      30.05F                  
ANKENY *       CLOUDY    63  55  77 CALM      30.06S                  
BOONE *        CLOUDY    61  54  77 SE7       30.03F                  
CHARITON *     CLOUDY    61  55  82 SE6       30.05F                  
DES MOINES     CLOUDY    65  55  70 SE8       30.04F                  
GRINNELL*      CLOUDY    58  52  79 SE5       30.07F                  
KNOXVILLE *    MOCLDY    61  54  77 SE6       30.04F                  
MARSHALLTOWN   CLOUDY    59  53  80 SE6       30.06F                  
NEWTON *       MOCLDY    57  54  88 SE6       30.06F                  
PELLA *        PTCLDY    60  53  79 SE5       30.07F                  
PERRY *          N/A     61  59  91 E5        30.04F                  
$$
 
IAZ004>006-015-016-023>025-035-036-131000-
   NORTH CENTRAL IOWA
  
CITY           SKY/WX    TMP DP  RH WIND       PRES   REMARKS
ALGONA *       MOCLDY    61  52  72 S10       30.04F                  
CLARION *      CLOUDY    59  54  82 SE9       30.04F                  
ESTHERVILLE    CLOUDY    60  54  80 S8        30.02F                  
FORT DODGE *   CLOUDY    64  52  63 SE8       30.04F                  
MASON CITY     PTCLDY    54  50  86 S6        30.08R                  
FOREST CITY *    N/A     55  52  88 SE3       30.06S                  
WEBSTER CITY * CLOUDY    61  52  72 SE7       30.02F                  
IOWA FALLS *     N/A     57  53  86 SE5       30.07F                  
$$

IAZ007>011-017>019-026>030-037>042-050>054-066-131000-
   NORTHEAST IOWA
  
CITY           SKY/WX    TMP DP  RH WIND       PRES   REMARKS
CEDAR RAPIDS   PTCLDY    51  51 100 SE3       30.07F                  
CHARLES CITY * CLOUDY    55  54  94 CALM      30.08R                  
CLINTON *      CLEAR     54  52  93 CALM      30.09S                  
DECORAH *      CLOUDY    54  52  94 CALM      30.08R                  
DUBUQUE        PTCLDY    53  51  93 CALM      30.08F                  
MONTICELLO *   CLOUDY    52  50  93 CALM      30.08S                  
OELWEIN *      CLOUDY    54  52  94 SE5       30.08F                  
WATERLOO       CLOUDY    52  49  89 CALM      30.06F                  
$$
 
IAZ064-065-067-068-078-131000-
   EAST CENTRAL IOWA
  
CITY           SKY/WX    TMP DP  RH WIND       PRES   REMARKS
DAVENPORT      CLEAR     50  48  93 NW3       30.10S                  
IOWA CITY      CLOUDY    56  53  90 CALM      30.09F                  
MT. PLEASANT * CLEAR     54  53  97 CALM      30.08F                  
MUSCATINE *    PTCLDY    52  50  93 CALM      30.07F                  
QUAD CITIES    PTCLDY    52  49  89 CALM      30.08R                  
$$
 
IAZ062-063-075>077-085>089-095>099-131000-
   SOUTHEAST IOWA
  
CITY           SKY/WX    TMP DP  RH WIND       PRES   REMARKS
BURLINGTON     CLEAR     54  54 100 CALM      30.07S                  
FAIRFIELD *    CLEAR     54  50  87 CALM      30.07F                  
FORT MADISON * PTCLDY    54  54 100 CALM      30.08S                  
KEOKUK *       PTCLDY    57  55  94 E5        30.06F                  
OSKALOOSA *      N/A     56  53  89 SE5       30.07F                  
CENTERVILLE *    N/A     57  55  94 CALM      30.07F                  
OTTUMWA        CLEAR     57  53  86 E5        30.06F                  
WASHINGTON *   CLOUDY    54  52  94 CALM      30.09S                  
$$

ABBREVIATIONS USED IN REMARKS
   TC - TEMPERATURES IN CELSIUS
  WCI - WIND CHILL INDEX
   HX - HEAT INDEX
  VSB - VISIBILITY  
$$

  

867 
ASUS43 KDMX 130901
RWRIA 

WEATHER ROUNDUP FOR IOWA
NATIONAL WEATHER SERVICE DES MOINES IA
400 AM CDT SUN AUG 13 2017

NOTE: "FAIR" INDICATES FEW OR NO CLOUDS BELOW 12,000 FEET WITH NO
SIGNIFICANT WEATHER AND/OR OBSTRUCTIONS TO VISIBILITY.

* - THESE STATIONS ARE NOT NWS STATIONS...THUS NOT UNDER NWS
QUALITY CONTROL.  THEY ALSO DO NOT REPORT WEATHER SUCH 
AS PRECIPITATION OR FOG.  

IAZ001>003-012>014-020>022-031>034-043>046-131000-
   NORTHWEST IOWA
  
CITY           SKY/WX    TMP DP  RH WIND       PRES   REMARKS
CARROLL *        N/A     61  59  94 CALM      30.01F                  
CHEROKEE *     CLOUDY    63  56  79 S3        29.98F                  
DENISON *      MOCLDY    63  57  82 SE6       30.02F                  
LE MARS *      MOCLDY    66  57  72 S7        29.95F                  
ORANGE CITY *  MOCLDY    63  57  82 SE3       29.97F                  
SHELDON *      CLOUDY    63  55  77 E7        29.97F                  
SIOUX CITY     CLOUDY    66  59  78 S12       29.95F                  
SPENCER        CLOUDY    63  56  78 SE8       30.01F                  
STORM LAKE *   CLOUDY    61  57  88 SE8       30.00F                  
$$
 
IAZ055>058-069>071-079>083-090>094-131000-
   SOUTHWEST IOWA
  
CITY           SKY/WX    TMP DP  RH WIND       PRES   REMARKS
ATLANTIC *     CLOUDY    61  59  94 CALM      30.02S                  
AUDUBON *      CLOUDY    59  55  88 CALM      30.03F                  
CLARINDA *       N/A     57  57 100 CALM      30.04S                  
COUNCIL BLFS * CLOUDY    64  59  82 SE8       30.00F                  
CRESTON *      CLOUDY    61  55  82 E3        30.05F                  
HARLAN  *        N/A     61  61 100 CALM      30.04F                  
LAMONI         CLOUDY    63  55  75 SE5       30.04F                  
RED OAK *      CLOUDY    61  59  94 CALM      30.02S                  
SHENANDOAH *     N/A     61  57  88 CALM      30.02S                  
$$
 
IAZ047>049-059>061-072>074-084-131000-
   CENTRAL IOWA
  
CITY           SKY/WX    TMP DP  RH WIND       PRES   REMARKS
AMES           CLOUDY    59  56  89 CALM      30.05F                  
ANKENY *       CLOUDY    63  55  77 CALM      30.06S                  
BOONE *        CLOUDY    61  54  77 SE7       30.03F                  
CHARITON *     CLOUDY    61  55  82 SE6       30.05F                  
DES MOINES     CLOUDY    65  55  70 SE8       30.04F                  
GRINNELL*      CLOUDY    58  52  79 SE5       30.07F                  
KNOXVILLE *    MOCLDY    61  54  77 SE6       30.04F                  
MARSHALLTOWN   CLOUDY    59  53  80 SE6       30.06F                  
NEWTON *       MOCLDY    57  54  88 SE6       30.06F                  
PELLA *        PTCLDY    60  53  79 SE5       30.07F                  
PERRY *          N/A     61  59  91 E5        30.04F                  
$$
 
IAZ004>006-015-016-023>025-035-036-131000-
   NORTH CENTRAL IOWA
  
CITY           SKY/WX    TMP DP  RH WIND       PRES   REMARKS
ALGONA *       MOCLDY    61  52  72 S10       30.04F                  
CLARION *      CLOUDY    59  54  82 SE9       30.04F                  
ESTHERVILLE    CLOUDY    60  54  80 S8        30.02F                  
FORT DODGE *   CLOUDY    64  52  63 SE8       30.04F                  
MASON CITY     PTCLDY    54  50  86 S6        30.08R                  
FOREST CITY *    N/A     55  52  88 SE3       30.06S                  
WEBSTER CITY * CLOUDY    61  52  72 SE7       30.02F                  
IOWA FALLS *     N/A     57  53  86 SE5       30.07F                  
$$

IAZ007>011-017>019-026>030-037>042-050>054-066-131000-
   NORTHEAST IOWA
  
CITY           SKY/WX    TMP DP  RH WIND       PRES   REMARKS
CEDAR RAPIDS   PTCLDY    51  51 100 SE3       30.07F                  
CHARLES CITY * CLOUDY    55  54  94 CALM      30.08R                  
CLINTON *      CLEAR     54  52  93 CALM      30.09S                  
DECORAH *      CLOUDY    54  52  94 CALM      30.08R                  
DUBUQUE        PTCLDY    53  51  93 CALM      30.08F                  
MONTICELLO *   CLOUDY    52  50  93 CALM      30.08S                  
OELWEIN *      CLOUDY    54  52  94 SE5       30.08F                  
WATERLOO       CLOUDY    52  49  89 CALM      30.06F                  
$$
 
IAZ064-065-067-068-078-131000-
   EAST CENTRAL IOWA
  
CITY           SKY/WX    TMP DP  RH WIND       PRES   REMARKS
DAVENPORT      CLEAR     50  48  93 NW3       30.10S                  
IOWA CITY      CLOUDY    56  53  90 CALM      30.09F                  
MUSCATINE *    PTCLDY    52  50  93 CALM      30.07F                  
QUAD CITIES    PTCLDY    52  49  89 CALM      30.08R                  
$$
 
IAZ062-063-075>077-085>089-095>099-131000-
   SOUTHEAST IOWA
  
CITY           SKY/WX    TMP DP  RH WIND       PRES   REMARKS
BURLINGTON     CLEAR     54  54 100 CALM      30.07S                  
FAIRFIELD *    CLEAR     54  50  87 CALM      30.07F                  
FORT MADISON * PTCLDY    54  54 100 CALM      30.08S                  
KEOKUK *       PTCLDY    57  55  94 E5        30.06F                  
OSKALOOSA *      N/A     56  53  89 SE5       30.07F                  
OTTUMWA        CLEAR     57  53  86 E5        30.06F                  
WASHINGTON *   CLOUDY    54  52  94 CALM      30.09S                  
$$

ABBREVIATIONS USED IN REMARKS
   TC - TEMPERATURES IN CELSIUS
  WCI - WIND CHILL INDEX
   HX - HEAT INDEX
  VSB - VISIBILITY  
$$